When you browse on this site, cookies collect data to enhance your experience and personalize the content and advertising you see.
Visit our Privacy Policy to learn more. By continuing to use the site, you agree to this use of cookies and data.
  • In Romania
  • List of Countries
  • For 7 days
  • Water Temperature
  • Weather Map
  • Weather Widgets
  • user-avatar
    Login

    Hourly Weather Bregenz

    Today, 26 August, Monday

    Time Temperature Precipitation Wind Pressure Humidity
    00:00 +11°C° 0 mm 1 mps 650 mmHg 79%
    01:00 +11°C° 0 mm 1 mps 650 mmHg 80%
    02:00 +11°C° 0 mm 1 mps 649 mmHg 80%
    03:00 +11°C° 0 mm 1 mps 649 mmHg 81%
    04:00 +11°C° 0 mm 1 mps 649 mmHg 81%
    05:00 +12°C° 0 mm 1 mps 649 mmHg 80%
    06:00 +12°C° 0 mm 1 mps 650 mmHg 79%
    07:00 +13°C° 0 mm 1 mps 650 mmHg 78%
    08:00 +15°C° 0 mm 1 mps 651 mmHg 70%
    09:00 +19°C° 0 mm 1 mps 651 mmHg 62%
    10:00 +21°C° 0 mm 1 mps 652 mmHg 55%
    11:00 +22°C° 0 mm 1 mps 652 mmHg 52%
    12:00 +22°C° 0 mm 1 mps 652 mmHg 49%
    13:00 +23°C° 0 mm 1 mps 652 mmHg 46%
    14:00 +23°C° 0.1 mm 1 mps 652 mmHg 48%
    15:00 +23°C° 0.1 mm 1 mps 652 mmHg 50%
    16:00 +23°C° 0.1 mm 1 mps 651 mmHg 52%
    17:00 +20°C° 0.1 mm 1 mps 651 mmHg 60%
    18:00 +16°C° 0.1 mm 0 mps 650 mmHg 69%
    19:00 +14°C° 0.1 mm 0 mps 650 mmHg 78%
    20:00 +14°C° 0 mm 1 mps 650 mmHg 78%
    21:00 +14°C° 0 mm 1 mps 650 mmHg 79%
    22:00 +13°C° 0 mm 1 mps 650 mmHg 79%
    23:00 +13°C° 0 mm 1 mps 649 mmHg 78%

    Tomorrow, 27 August, Tuesday

    Time Temperature Precipitation Wind Pressure Humidity
    00:00 +12°C° 0 mm 1 mps 649 mmHg 78%
    01:00 +12°C° 0 mm 1 mps 649 mmHg 77%
    02:00 +12°C° 0 mm 1 mps 649 mmHg 77%
    03:00 +11°C° 0 mm 1 mps 649 mmHg 76%
    04:00 +11°C° 0 mm 1 mps 649 mmHg 76%
    05:00 +12°C° 0 mm 1 mps 649 mmHg 75%
    06:00 +13°C° 0 mm 1 mps 649 mmHg 75%
    07:00 +13°C° 0 mm 1 mps 650 mmHg 74%
    08:00 +16°C° 0 mm 1 mps 650 mmHg 67%
    09:00 +19°C° 0 mm 1 mps 651 mmHg 60%
    10:00 +22°C° 0 mm 1 mps 652 mmHg 52%
    11:00 +23°C° 0 mm 1 mps 652 mmHg 50%
    12:00 +23°C° 0 mm 1 mps 652 mmHg 47%
    13:00 +24°C° 0 mm 1 mps 652 mmHg 44%
    14:00 +24°C° 0 mm 1 mps 652 mmHg 46%
    15:00 +24°C° 0 mm 1 mps 652 mmHg 48%
    16:00 +24°C° 0 mm 1 mps 651 mmHg 49%
    17:00 +22°C° 0 mm 1 mps 651 mmHg 59%
    18:00 +19°C° 0 mm 1 mps 650 mmHg 68%
    19:00 +15°C° 0 mm 0 mps 649 mmHg 77%
    20:00 +16°C° 0 mm 1 mps 650 mmHg 76%
    21:00 +15°C° 0 mm 1 mps 650 mmHg 75%
    22:00 +15°C° 0 mm 1 mps 650 mmHg 74%
    23:00 +15°C° 0 mm 1 mps 650 mmHg 74%

    Day after tomorrow, 28 August, Wednesday

    Time Temperature Precipitation Wind Pressure Humidity
    00:00 +14°C° 0 mm 1 mps 650 mmHg 74%
    01:00 +14°C° 0 mm 2 mps 650 mmHg 74%
    02:00 +14°C° 0 mm 1 mps 650 mmHg 75%
    03:00 +14°C° 0 mm 1 mps 649 mmHg 75%
    04:00 +14°C° 0 mm 1 mps 649 mmHg 75%
    05:00 +14°C° 0 mm 1 mps 650 mmHg 76%
    06:00 +15°C° 0 mm 1 mps 650 mmHg 76%
    07:00 +15°C° 0 mm 1 mps 650 mmHg 77%
    08:00 +18°C° 0 mm 1 mps 651 mmHg 70%
    09:00 +20°C° 0 mm 1 mps 651 mmHg 64%
    10:00 +22°C° 0 mm 1 mps 652 mmHg 57%
    11:00 +23°C° 0.2 mm 1 mps 651 mmHg 59%
    12:00 +23°C° 0.2 mm 1 mps 651 mmHg 60%
    13:00 +23°C° 0.2 mm 1 mps 651 mmHg 61%
    14:00 +23°C° 0.5 mm 1 mps 651 mmHg 65%
    15:00 +22°C° 0.5 mm 1 mps 651 mmHg 69%
    16:00 +22°C° 0.5 mm 1 mps 650 mmHg 73%
    17:00 +18°C° 0.5 mm 0 mps 650 mmHg 76%
    18:00 +17°C° 0.5 mm 0 mps 650 mmHg 80%
    19:00 +15°C° 0.5 mm 0 mps 649 mmHg 83%
    20:00 +16°C° 0.5 mm 1 mps 649 mmHg 85%
    21:00 +15°C° 0.5 mm 1 mps 649 mmHg 86%
    22:00 +14°C° 0.5 mm 1 mps 649 mmHg 88%
    23:00 +14°C° 0.1 mm 1 mps 649 mmHg 88%

    29 August, Thursday

    Time Temperature Precipitation Wind Pressure Humidity
    00:00 +13°C° 0.1 mm 1 mps 649 mmHg 88%
    01:00 +13°C° 0.1 mm 1 mps 649 mmHg 88%
    02:00 +13°C° 0.2 mm 1 mps 649 mmHg 88%
    03:00 +12°C° 0.2 mm 1 mps 648 mmHg 87%
    04:00 +12°C° 0.2 mm 1 mps 648 mmHg 87%
    05:00 +12°C° 0.5 mm 1 mps 648 mmHg 86%
    06:00 +13°C° 0.5 mm 1 mps 649 mmHg 86%
    07:00 +14°C° 0.5 mm 1 mps 649 mmHg 86%
    08:00 +16°C° 0.2 mm 1 mps 650 mmHg 80%
    09:00 +19°C° 0.2 mm 1 mps 650 mmHg 74%
    10:00 +20°C° 0.2 mm 1 mps 651 mmHg 68%
    11:00 +21°C° 0.9 mm 1 mps 651 mmHg 69%
    12:00 +21°C° 0.9 mm 1 mps 651 mmHg 69%
    13:00 +20°C° 0.9 mm 2 mps 651 mmHg 70%
    14:00 +21°C° 1 mm 1 mps 651 mmHg 73%
    15:00 +21°C° 1 mm 1 mps 651 mmHg 75%
    16:00 +20°C° 1 mm 1 mps 651 mmHg 78%
    17:00 +19°C° 0.4 mm 1 mps 650 mmHg 81%
    18:00 +16°C° 0.4 mm 0 mps 650 mmHg 84%
    19:00 +14°C° 0.4 mm 0 mps 650 mmHg 86%
    20:00 +14°C° 0.3 mm 0 mps 650 mmHg 87%
    21:00 +14°C° 0.3 mm 1 mps 650 mmHg 88%
    22:00 +14°C° 0.3 mm 1 mps 650 mmHg 89%
    23:00 +13°C° 0.1 mm 1 mps 650 mmHg 90%

    30 August, Friday

    Time Temperature Precipitation Wind Pressure Humidity
    00:00 +13°C° 0.1 mm 1 mps 650 mmHg 90%
    01:00 +13°C° 0.1 mm 1 mps 649 mmHg 90%
    02:00 +12°C° 0.4 mm 1 mps 649 mmHg 91%
    03:00 +12°C° 0.4 mm 1 mps 649 mmHg 91%
    04:00 +12°C° 0.4 mm 1 mps 649 mmHg 92%
    05:00 +12°C° 0.2 mm 1 mps 649 mmHg 92%
    06:00 +12°C° 0.2 mm 0 mps 650 mmHg 91%
    07:00 +13°C° 0.2 mm 0 mps 650 mmHg 91%
    08:00 +15°C° 0.2 mm 1 mps 650 mmHg 87%
    09:00 +16°C° 0.2 mm 1 mps 651 mmHg 83%
    10:00 +19°C° 0.2 mm 1 mps 651 mmHg 79%
    11:00 +19°C° 0.4 mm 1 mps 651 mmHg 77%
    12:00 +20°C° 0.4 mm 1 mps 651 mmHg 75%
    13:00 +20°C° 0.4 mm 1 mps 651 mmHg 73%
    14:00 +20°C° 0.8 mm 1 mps 651 mmHg 75%
    15:00 +20°C° 0.8 mm 1 mps 651 mmHg 77%
    16:00 +20°C° 0.8 mm 1 mps 650 mmHg 79%
    17:00 +19°C° 0.6 mm 1 mps 650 mmHg 84%
    18:00 +16°C° 0.6 mm 1 mps 650 mmHg 88%
    19:00 +14°C° 0.6 mm 0 mps 650 mmHg 92%
    20:00 +13°C° 0.5 mm 0 mps 649 mmHg 93%
    21:00 +13°C° 0.5 mm 0 mps 649 mmHg 93%
    22:00 +12°C° 0.5 mm 0 mps 649 mmHg 94%
    23:00 +13°C° 0 mm 1 mps 649 mmHg 94%

    31 August, Saturday

    Time Temperature Precipitation Wind Pressure Humidity
    00:00 +12°C° 0 mm 1 mps 649 mmHg 94%
    01:00 +12°C° 0 mm 1 mps 648 mmHg 94%
    02:00 +12°C° 0 mm 1 mps 648 mmHg 94%
    03:00 +12°C° 0 mm 1 mps 648 mmHg 94%
    04:00 +11°C° 0 mm 1 mps 648 mmHg 93%
    05:00 +12°C° 0 mm 1 mps 648 mmHg 93%
    06:00 +13°C° 0 mm 1 mps 648 mmHg 92%
    07:00 +12°C° 0 mm 0 mps 648 mmHg 91%
    08:00 +14°C° 0 mm 0 mps 649 mmHg 84%
    09:00 +16°C° 0 mm 0 mps 649 mmHg 77%
    10:00 +18°C° 0 mm 0 mps 650 mmHg 70%
    11:00 +21°C° 0.2 mm 1 mps 650 mmHg 69%
    12:00 +21°C° 0.2 mm 1 mps 650 mmHg 69%
    13:00 +22°C° 0.2 mm 1 mps 649 mmHg 68%
    14:00 +21°C° 1.1 mm 1 mps 649 mmHg 72%
    15:00 +21°C° 1.1 mm 1 mps 649 mmHg 75%
    16:00 +20°C° 1.1 mm 1 mps 648 mmHg 79%
    17:00 +19°C° 1.4 mm 1 mps 648 mmHg 82%
    18:00 +18°C° 1.4 mm 1 mps 648 mmHg 84%
    19:00 +16°C° 1.4 mm 1 mps 648 mmHg 87%
    20:00 +15°C° 0.7 mm 1 mps 648 mmHg 88%
    21:00 +14°C° 0.7 mm 1 mps 648 mmHg 89%
    22:00 +14°C° 0.7 mm 1 mps 648 mmHg 89%
    23:00 +14°C° 0 mm 1 mps 648 mmHg 90%
    Show more